This is the latest recevied weather packets stored in our database for station/object N4AR. If no packets are shown the sender has not sent any weather packets the latest 10 day(s).
| Time | Temp. | Humidity | Pressure | Rain* | Wind** | Luminosity | Snow |
|---|---|---|---|---|---|---|---|
| 1777633633 | 8.89° C | 77% | 1016.2 hPa | 0 mm | - | 34 W/m² | - |
| 1777633331 | 8.89° C | 77% | 1016.2 hPa | 0 mm | - | 29 W/m² | - |
| 1777633028 | 8.33° C | 77% | 1016.1 hPa | 0 mm | - | 28 W/m² | - |
| 1777632724 | 8.33° C | 76% | 1016.1 hPa | 0 mm | - | 24 W/m² | - |
| 1777632420 | 8.89° C | 75% | 1016.1 hPa | 0 mm | - | 21 W/m² | - |
| 1777632118 | 8.89° C | 75% | 1016.2 hPa | 0 mm | - | 16 W/m² | - |
| 1777631815 | 8.89° C | 73% | 1015.9 hPa | 0 mm | - | 11 W/m² | - |
| 1777631514 | 8.89° C | 72% | 1015.8 hPa | 0 mm | - | 8 W/m² | - |
| 1777631210 | 8.89° C | 72% | 1016 hPa | 0 mm | - | 6 W/m² | - |
| 1777630908 | 8.89° C | 73% | 1015.8 hPa | 0 mm | - | 5 W/m² | - |
| 1777630608 | 8.89° C | 74% | 1015.7 hPa | 0 mm | - | 3 W/m² | - |
| 1777630305 | 8.89° C | 72% | 1015.8 hPa | 0 mm | - | 2 W/m² | - |
| 1777630003 | 8.89° C | 72% | 1015.6 hPa | 0 mm | - | 1 W/m² | - |
| 1777629701 | 8.89° C | 72% | 1016.1 hPa | 0 mm | - | 0 W/m² | - |
| 1777629397 | 8.89° C | 73% | 1015.9 hPa | 0 mm | - | 0 W/m² | - |
| 1777629093 | 8.89° C | 72% | 1015.8 hPa | 0 mm | - | 0 W/m² | - |
| 1777628790 | 8.89° C | 70% | 1015.7 hPa | 0 mm | - | 0 W/m² | - |
| 1777628486 | 8.89° C | 71% | 1015.6 hPa | 0 mm | - | 0 W/m² | - |
| 1777628182 | 8.89° C | 72% | 1015.6 hPa | 0 mm | - | 0 W/m² | - |
| 1777627878 | 8.89° C | 73% | 1015.6 hPa | 0 mm | - | 0 W/m² | - |
| 1777627577 | 8.89° C | 72% | 1015.8 hPa | 0 mm | - | 0 W/m² | - |
| 1777627271 | 8.89° C | 70% | 1015.6 hPa | 0 mm | - | 0 W/m² | - |
| 1777626969 | 9.44° C | 70% | 1015.5 hPa | 0 mm | - | 0 W/m² | - |
| 1777626665 | 9.44° C | 69% | 1015.5 hPa | 0 mm | - | 0 W/m² | - |
| 1777626361 | 9.44° C | 68% | 1015.5 hPa | 0 mm | - | 0 W/m² | - |
* Rain latest hour (hover to see other rain measurements)
** Current wind speed in m/s (hover to see current wind gust speed)